Skip Page Navigation
NASA JPL Caltech
NASA Logo - Jet Propulsion Laboratory + View the NASA Portal
+ Center for Near-Earth Object Studies
JPL Home Earth Solar System Stars & Galaxies Technology
JPL Solar System Dynamics
BODIES ORBITS EPHEMERIDES TOOLS PHYSICAL DATA DISCOVERY FAQ SITE MAP
JPL Small-Body Database Browser
Search: [ help ]  
413511 (2005 RS24)
Classification: Main-belt Asteroid          SPK-ID: 2413511
Ephemeris | Orbit Diagram | Orbital Elements | Mission Design | Physical Parameters | Discovery Circumstances ]

[ show orbit diagram ]
Orbital Elements at Epoch 2459000.5 (2020-May-31.0) TDB
Reference: JPL 16 (heliocentric ecliptic J2000)
 Element Value Uncertainty (1-sigma)   Units 
e .1855697608437786 8.6795e-08  
a 2.625159527068875 2.6087e-08 au
q 2.138009301453937 2.2447e-07 au
i 38.77371178408411 1.385e-05 deg
node 185.205044379715 9.272e-06 deg
peri 245.4537002113321 3.2228e-05 deg
M 105.2061434673502 2.79e-05 deg
tp 2458546.484607437990
(2019-Mar-03.98460744)
0.00012014 TDB
period 1553.574115878959
4.25
2.3157e-05
6.34e-08
d
yr
n .2317237371043121 3.454e-09 deg/d
Q 3.112309752683813 3.0928e-08 au
  Orbit Determination Parameters
   # obs. used (total)      193  
   data-arc span      6820 days (18.67 yr)  
   first obs. used      2001-08-26  
   last obs. used      2020-04-28  
   planetary ephem.      DE431  
   SB-pert. ephem.      SB431-N16  
   condition code      0  
   norm. resid. RMS      .68076  
   source      ORB  
   producer      Otto Matic  
   solution date      2020-May-22 02:08:04  

Additional Information
 Earth MOID = 1.28666 au 
 Jupiter MOID = 2.58098 au 
 T_jup = 3.070 
[ show covariance matrix ]

Ephemeris | Orbit Diagram | Orbital Elements | Mission Design | Physical Parameters | Discovery Circumstances ]

Physical Parameter Table
Parameter Symbol Value Units Sigma Reference Notes
absolute magnitude H 16.3   n/a MPO455944  

413511 (2005 RS24)          Discovered 2005-Sep-11 by LINEAR at Socorro
Reference: Last Updated: 2014-11-10
Ephemeris | Orbit Diagram | Orbital Elements | Mission Design | Physical Parameters | Discovery Circumstances ]
ABOUT SSD CREDITS/AWARDS PRIVACY/COPYRIGHT GLOSSARY LINKS
FirstGov 2020-Aug-04 00:58 UT
(server date/time)  
NASA Home Page
Site Manager:   Ryan S. Park
Webmaster  Alan B. Chamberlin